User: anonymous   Login
Location: Ladrillo (historical)
(32.8195°N, 117.2231°W)
Time: 09:20:09
(UTC+00:00)
Language:

FO-99 - Orbit

View from above orbital plane
View from above orbital plane
View from above satellite
View from above satellite

Ground track
Ground track

The orbit data is extracted from the following two-line orbital elements,

1 43937U 19003F   21209.83387662  .00002457  00000-0  97862-4 0  9990
2 43937  97.1730 251.3556 0021814 222.2257 137.7303 15.25936983140572
Epoch (UTC): 28 July 2021 20:00:46
Eccentricity: 0.0021814
inclination: 97.1730°
perigee height: 473 km
apogee height: 503 km
right ascension of ascending node: 251.3556°
argument of perigee: 222.2257°
revolutions per day: 15.25936983
mean anomaly at epoch: 137.7303°
orbit number at epoch: 14057

The dashed part of the orbit path shows where the satellite is in the earth's shadow,  

DLR